Regional Weather Roundup
Issued by NWS

Home | Current Version | Previous Version | Graphics & Text | Print | Product List | Glossary Off
Versions: 1 2 3 4 5 6 7 8 9 10 11 12 13 14 15 16 17 18 19 20 21 22 23 24 25 26 27 28 29 30 31 32 33 34 35 36 37 38 39 40 41 42 43 44 45 46 47 48 49 50

000
ASUS43 KMKX 010859
RWRWI

WISCONSIN REGIONAL WEATHER ROUNDUP
NATIONAL WEATHER SERVICE MILWAUKEE/SULLIVAN WI
300 AM CST SUN FEB 01 2015

NOTE: "FAIR" INDICATES FEW OR NO CLOUDS BELOW 12,000 FEET WITH NO
SIGNIFICANT WEATHER AND/OR OBSTRUCTIONS TO VISIBILITY.

WIZ001-002-006>008-014>016-023>028-011000-
NORTHWEST WISCONSIN

CITY           SKY/WX    TMP DP  RH WIND       PRES   REMARKS
SUPERIOR ARPT  LGT SNOW  10   7  87 NE10G17   30.37F WCI  -4
ASHLAND        CLOUDY    10   1  67 E9        30.37R WCI  -3
HAYWARD        CLOUDY    11   1  64 NE14      30.27F WCI  -5
SIREN          CLOUDY    14   7  73 NE7       30.28S WCI   4
CUMBERLAND     CLOUDY    14   3  62 NE13G18   30.23S WCI   0
RICE LAKE      CLOUDY    14   4  63 NE10      30.26S WCI   2
CHETEK         CLOUDY    14   4  65 NE8       30.24S WCI   2
LADYSMITH      CLOUDY    13   4  69 NE13G20   30.26S WCI  -2
EAU CLAIRE     LGT SNOW  16   9  74 NE14      30.20F WCI   2
MENOMONIE      LGT SNOW  17  10  74 NE15      30.22S WCI   2
NEW RICHMOND   CLOUDY    16   7  69 NE16G23   30.22S WCI   0
OSCEOLA        CLOUDY    17   8  67 NE13      30.26F WCI   3
$$

WIZ003>005-009-010-017-018-011000-
NORTH CENTRAL WISCONSIN

CITY           SKY/WX    TMP DP  RH WIND       PRES   REMARKS
MANITOWISH WTR MOCLDY     3  -3  77 NE7       30.27F WCI -10
ARBOR VITAE    CLOUDY     6   0  76 NE3       30.26F
WOODRUFF       CLOUDY     6   0  76 NE3       30.26F
RHINELANDER    CLOUDY     5  -2  72 NE6       30.24F WCI  -6
EAGLE RIVER    MOCLDY     4  -3  72 NE5       30.25F WCI  -6
LAND O LAKES   MOCLDY     3  -1  81 N6        30.27F WCI  -8
PHILLIPS       CLOUDY     7   0  74 NE12      30.25S WCI  -9
TOMAHAWK       CLOUDY     7   0  73 NE3       30.25F
MEDFORD        CLOUDY    11   4  73 NE17      30.19F WCI  -6
MERRILL        CLOUDY    10   2  70 NE9       30.24S WCI  -3
$$

WIZ029-030-035-036-043>047-011000-
CENTRAL WISCONSIN

CITY           SKY/WX    TMP DP  RH WIND       PRES   REMARKS
WAUSAU         CLOUDY    11   2  67 NE10G20   30.22S WCI  -3
MOSINEE        CLOUDY    14   9  79 NE15      30.23R WCI  -1
MARSHFIELD     LGT SNOW  15  10  80 NE16      30.18F WCI  -1
STEVENS POINT  LGT SNOW  11   6  80 NE15G21   30.23S WCI  -5
WAUPACA        CLOUDY    15   8  73 NE8       30.25F HAZE    WCI   4
WAUTOMA        LGT SNOW  16  10  79 NE17      30.22S WCI   0
WISC RAPIDS    LGT SNOW  14   8  77 E14G22    30.22S WCI  -1
CAMP DOUGLAS   LGT SNOW  18  18 100 E13G23    30.17S FOG     WCI   4
$$

WIZ011>013-019>022-031-037>040-048>050-011000-
NORTHEAST WISCONSIN

CITY           SKY/WX    TMP DP  RH WIND       PRES   REMARKS
ANTIGO         CLOUDY     8   1  76 NE13      30.22F WCI  -8
SHAWANO        CLOUDY    15   5  66 NE13G18   30.28F WCI   0
OCONTO         CLOUDY    12   4  71 MISG      30.30F
STURGEON BAY   CLOUDY    12   5  73 N14       30.29F WCI  -3
GREEN BAY      CLOUDY    14   6  70 NE18G28   30.26F WCI  -3
MANITOWOC      NOT AVBL
APPLETON       LGT SNOW  14   7  73 NE15G24   30.23F WCI  -1
CLINTONVILLE   CLOUDY    14   3  62 NE13      30.26F WCI   0
OSHKOSH        LGT SNOW  14   9  80 NE21G30   30.21F WCI  -4
$$

WIZ032>034-041-042-053>061-011000-
SOUTHWEST WISCONSIN

CITY           SKY/WX    TMP DP  RH WIND       PRES   REMARKS
LA CROSSE      LGT SNOW  27  22  81 N6        30.11F WCI  20
SPARTA         LGT SNOW  22  18  87 E16G28    30.15S WCI   8
VIROQUA        CLOUDY    24  24 100 E14       30.06F VSB 1   WCI  11
BOSCOBEL       LGT SNOW  27  23  85 NE13G20   30.08F VSB 3/4 WCI  16
PRAIRIE DU CHI LGT SNOW  27  24  87 E10       30.05S WCI  17
PLATTEVILLE    CLOUDY    28  26  94 NE21G28   30.02F VSB 1   WCI  14
$$

WIZ056-057-062-063-064-067-068-011000-
SOUTH CENTRAL WISCONSIN

CITY           SKY/WX    TMP DP  RH WIND       PRES   REMARKS
REEDSBURG      LGT SNOW  19  15  86 NE17G28   30.13S WCI   3
BARABOO/DELLS  LGT SNOW  18  14  86 NE15      30.13S VSB 3/4 WCI   3
LONE ROCK      NOT AVBL
MINERAL POINT  LGT SNOW  28  27  93 NE13G26   30.03F VSB 1   WCI  18
MADISON        LGT SNOW  22  18  85 NE17      30.11F FOG     WCI   8
MIDDLETON      CLOUDY    25  22  87 E18G24    30.11S WCI  12
WATERTOWN      LGT SNOW  24  22  91 NE14G21   30.12S WCI  12
MONROE         LGT SNOW  28  28 100 NE14      30.04F WCI  17
JANESVILLE     LGT SNOW  30  28  93 E18       30.08F VSB 1   WCI  18
$$

WIZ051-052-058>065-066-070>072-011000-
SOUTHEAST WISCONSIN

CITY           SKY/WX    TMP DP  RH WIND       PRES   REMARKS
MILWAUKEE      LGT SNOW  27  23  85 NE22G30   30.13F FOG     WCI  13
WAUKESHA       LGT SNOW  25  23  93 NE17G26   30.13S WCI  11
MILWAUKEE/TIMM LGT SNOW  27  23  86 NE15      30.14F WCI  15
RACINE         LGT SNOW  29  25  85 E14       30.14F FOG     WCI  18
BURLINGTON     LGT SNOW  26  25  94 NE13      30.10F WCI  15
KENOSHA        LGT SNOW  29  26  89 E18       30.10F VSB 3/4 WCI  16
FOND DU LAC    LGT SNOW  16  11  80 NE23      30.20F WCI  -2
SHEBOYGAN      LGT SNOW  17  13  84 N13       30.19F VSB 3/4 WCI   4
WEST BEND      LGT SNOW  23  21  93 NE18G24   30.15F WCI   9
JUNEAU         LGT SNOW  19  16  88 N15       30.15F WCI   5
$$

LSZ147-162-011000-
LAKE SUPERIOR

STATION/POSITION TIME  TEMP    WIND        PRES    WAVE
                       AIR SEA DIR/SP/G            HT/PER
                 (UTC) (F)     (DEG/KT/KT) (MB)    (FT/S)
DEVILS ISLAND    0800   11      50/ 20/ 23 1031.3R
PORT WING        0800   14      70/ 12/ 18 1028.4S
SAXON HARBOR     0800   10     100/  4/ 12 1028.8R
$$

LMZ867-665-643>646-011000-
LAKE MICHIGAN

STATION/POSITION TIME  TEMP    WIND        PRES    WAVE
                       AIR SEA DIR/SP/G            HT/PER
                 (UTC) (F)     (DEG/KT/KT) (MB)    (FT/S)
NORTHPORT PIER   0827   15      10/ 15/ 19 1026.8F
SISTER BAY       0813   14      20/ 11/ 13   N/A
KEWAUNEE LAKESHO 0800   15      10/  9/ 15 1024.3F
SHEBOYGAN LAKESH 0800   24      40/ 23/ 26 1024.0F
PORT WASHINGTON  0827   27      50/ 20/ 25 1022.4F
MILWAUKEE LAKESH 0800   28      50/ 23/ 26   N/A
KENOSHA   LAKESH 0800   30      60/ 19/ 21 1020.0F
$$

TC  - TEMPERATURE IN CELSIUS
VSB - VISIBILITY IN STATUTE MILES
WCI - WIND CHILL INDEX
HX  - HEAT INDEX



USA.gov is the U.S. government's official web portal to all federal, state and local government web resources and services.